SVA312 OERK-OEGS

Flight info

Callsign SVA312
Flight time 0h 46m
Altitude 26000
Route IVONU Z710 GAS
Aircraft A332/H-SDE3GHIJ2J3J5M1RVWXY/LB2D1

Departure

Time 2026-04-22 14:29
Airport King Khalid International Airport (OERK)

Arrival

Time 2026-04-22 15:16
Airport Prince Naif bin Abdulaziz International Airport (OEGS)
Time Latitude Longitude Altitude Speed Heading
2026-04-22 14:11 24.94577 46.71371 2038 ft 0 kts 60°
2026-04-22 14:18 24.94574 46.71365 2038 ft 2 kts 60°
2026-04-22 14:18 24.94566 46.71351 2038 ft 2 kts 60°
2026-04-22 14:18 24.94559 46.71337 2038 ft 2 kts 60°
2026-04-22 14:19 24.94551 46.71323 2038 ft 2 kts 60°
2026-04-22 14:19 24.94545 46.71311 2038 ft 0 kts 60°
2026-04-22 14:19 24.94538 46.71300 2038 ft 2 kts 36°
2026-04-22 14:19 24.94525 46.71293 2037 ft 2 kts
2026-04-22 14:20 24.94506 46.71298 2037 ft 1 kts 329°
2026-04-22 14:20 24.94505 46.71299 2037 ft 0 kts 329°
2026-04-22 14:22 24.94505 46.71298 2037 ft 0 kts 329°
2026-04-22 14:22 24.94528 46.71283 2037 ft 10 kts 329°
2026-04-22 14:22 24.94728 46.71159 2040 ft 20 kts 330°
2026-04-22 14:23 24.94855 46.71079 2040 ft 22 kts 330°
2026-04-22 14:23 24.94991 46.70993 2043 ft 22 kts 330°
2026-04-22 14:23 24.95118 46.70913 2050 ft 16 kts 329°
2026-04-22 14:23 24.95218 46.70884 2053 ft 15 kts 31°
2026-04-22 14:24 24.95284 46.70990 2051 ft 18 kts 59°
2026-04-22 14:24 24.95357 46.71124 2047 ft 21 kts 51°
2026-04-22 14:24 24.95492 46.71104 2046 ft 22 kts 328°
2026-04-22 14:24 24.95633 46.71015 2046 ft 24 kts 331°
2026-04-22 14:25 24.95787 46.70916 2046 ft 24 kts 330°
2026-04-22 14:25 24.95907 46.70871 2045 ft 17 kts 42°
2026-04-22 14:25 24.96016 46.70913 2042 ft 19 kts 335°
2026-04-22 14:25 24.96138 46.70835 2041 ft 21 kts 328°
2026-04-22 14:26 24.96273 46.70751 2042 ft 23 kts 330°
2026-04-22 14:26 24.96417 46.70659 2044 ft 24 kts 330°
2026-04-22 14:26 24.96565 46.70568 2046 ft 25 kts 330°
2026-04-22 14:26 24.96718 46.70469 2050 ft 25 kts 330°
2026-04-22 14:27 24.96876 46.70372 2051 ft 27 kts 330°
2026-04-22 14:27 24.97050 46.70260 2049 ft 30 kts 331°
2026-04-22 14:27 24.97231 46.70145 2053 ft 30 kts 329°
2026-04-22 14:27 24.97409 46.70032 2052 ft 28 kts 331°
2026-04-22 14:28 24.97548 46.69997 2054 ft 19 kts 38°
2026-04-22 14:28 24.97622 46.70123 2056 ft 19 kts 72°
2026-04-22 14:28 24.97586 46.70261 2057 ft 20 kts 142°
2026-04-22 14:28 24.97435 46.70360 2055 ft 41 kts 149°
2026-04-22 14:29 24.96993 46.70640 2044 ft 102 kts 149°
2026-04-22 14:29 24.96219 46.71127 2044 ft 150 kts 151°
2026-04-22 14:29 24.95213 46.71749 2190 ft 172 kts 148°
2026-04-22 14:29 24.94255 46.72375 2879 ft 155 kts 139°
2026-04-22 14:30 24.93434 46.73121 3455 ft 153 kts 135°
2026-04-22 14:30 24.92616 46.73867 3952 ft 159 kts 136°
2026-04-22 14:30 24.91737 46.74675 4343 ft 169 kts 135°
2026-04-22 14:30 24.90615 46.75241 4629 ft 192 kts 169°
2026-04-22 14:31 24.89216 46.74921 4793 ft 224 kts 206°
2026-04-22 14:31 24.88077 46.73665 5033 ft 251 kts 239°
2026-04-22 14:31 24.87602 46.71736 5419 ft 275 kts 263°
2026-04-22 14:31 24.87177 46.69606 5910 ft 293 kts 251°
2026-04-22 14:32 24.86515 46.67475 6802 ft 295 kts 249°
2026-04-22 14:32 24.85815 46.65390 7848 ft 291 kts 249°
2026-04-22 14:32 24.85240 46.63328 8889 ft 286 kts 260°
2026-04-22 14:32 24.85308 46.61190 9854 ft 284 kts 277°
2026-04-22 14:33 24.85683 46.59038 10562 ft 292 kts 280°
2026-04-22 14:33 24.86153 46.56778 10832 ft 315 kts 281°
2026-04-22 14:33 24.86672 46.54402 11492 ft 323 kts 281°
2026-04-22 14:33 24.87199 46.52016 12387 ft 322 kts 282°
2026-04-22 14:34 24.87719 46.49672 13302 ft 320 kts 281°
2026-04-22 14:34 24.88246 46.47284 14156 ft 320 kts 281°
2026-04-22 14:34 24.88769 46.44913 14935 ft 322 kts 281°
2026-04-22 14:34 24.89298 46.42522 15647 ft 325 kts 281°
2026-04-22 14:35 24.89831 46.40099 16322 ft 329 kts 281°
2026-04-22 14:35 24.90368 46.37671 17041 ft 331 kts 280°
2026-04-22 14:35 24.90910 46.35202 17766 ft 333 kts 280°
2026-04-22 14:35 24.91458 46.32714 18447 ft 335 kts 280°
2026-04-22 14:36 24.92004 46.30224 18990 ft 339 kts 280°
2026-04-22 14:36 24.92561 46.27690 19061 ft 344 kts 279°
2026-04-22 14:36 24.93123 46.25127 19059 ft 352 kts 279°
2026-04-22 14:36 24.93704 46.22481 19743 ft 352 kts 279°
2026-04-22 14:37 24.94263 46.19925 20607 ft 347 kts 279°
2026-04-22 14:37 24.94829 46.17348 21345 ft 345 kts 279°
2026-04-22 14:37 24.95384 46.14811 21943 ft 347 kts 279°
2026-04-22 14:37 24.95954 46.12197 22428 ft 352 kts 279°
2026-04-22 14:38 24.96525 46.09586 22971 ft 355 kts 279°
2026-04-22 14:38 24.97098 46.06953 23532 ft 357 kts 279°
2026-04-22 14:38 24.97679 46.04285 24092 ft 359 kts 279°
2026-04-22 14:38 24.98270 46.01578 24602 ft 362 kts 279°
2026-04-22 14:39 24.98850 45.98902 25145 ft 364 kts 279°
2026-04-22 14:39 24.99439 45.96193 25746 ft 364 kts 279°
2026-04-22 14:39 25.00030 45.93478 26114 ft 359 kts 279°
2026-04-22 14:40 25.01177 45.88179 25988 ft 357 kts 279°
2026-04-22 14:40 25.01754 45.85516 26070 ft 355 kts 279°
2026-04-22 14:40 25.02323 45.82883 26038 ft 358 kts 279°
2026-04-22 14:40 25.02904 45.80193 25970 ft 357 kts 279°
2026-04-22 14:41 25.03474 45.77552 25955 ft 359 kts 279°
2026-04-22 14:41 25.04053 45.74868 25958 ft 356 kts 279°
2026-04-22 14:41 25.04625 45.72223 25967 ft 357 kts 280°
2026-04-22 14:41 25.05192 45.69579 25968 ft 356 kts 280°
2026-04-22 14:42 25.05837 45.66914 25961 ft 359 kts 286°
2026-04-22 14:42 25.06917 45.64430 25975 ft 363 kts 292°
2026-04-22 14:42 25.08043 45.61953 25984 ft 362 kts 291°
2026-04-22 14:42 25.09152 45.59452 25960 ft 361 kts 291°
2026-04-22 14:43 25.10242 45.56971 25965 ft 358 kts 291°
2026-04-22 14:43 25.11321 45.54504 25962 ft 361 kts 291°
2026-04-22 14:43 25.12409 45.52010 25960 ft 361 kts 291°
2026-04-22 14:43 25.13497 45.49516 25962 ft 359 kts 291°
2026-04-22 14:44 25.14582 45.47034 25953 ft 359 kts 291°
2026-04-22 14:44 25.15660 45.44551 25963 ft 359 kts 291°
2026-04-22 14:44 25.16734 45.42089 25957 ft 356 kts 291°
2026-04-22 14:44 25.17804 45.39624 25947 ft 359 kts 291°
2026-04-22 14:45 25.18887 45.37135 25963 ft 359 kts 291°
2026-04-22 14:45 25.19970 45.34642 25962 ft 356 kts 291°
2026-04-22 14:45 25.21041 45.32175 25953 ft 355 kts 291°
2026-04-22 14:45 25.22109 45.29716 25970 ft 356 kts 290°
2026-04-22 14:46 25.23182 45.27243 25967 ft 356 kts 290°
2026-04-22 14:46 25.24242 45.24796 25964 ft 357 kts 291°
2026-04-22 14:46 25.25307 45.22336 25968 ft 355 kts 291°
2026-04-22 14:46 25.26381 45.19857 25960 ft 354 kts 291°
2026-04-22 14:47 25.27445 45.17403 25957 ft 356 kts 291°
2026-04-22 14:47 25.28503 45.14955 25962 ft 355 kts 291°
2026-04-22 14:47 25.29564 45.12500 25955 ft 355 kts 291°
2026-04-22 14:47 25.30623 45.10053 25954 ft 354 kts 291°
2026-04-22 14:48 25.31679 45.07605 25959 ft 355 kts 291°
2026-04-22 14:48 25.32746 45.05131 25958 ft 354 kts 291°
2026-04-22 14:48 25.33794 45.02705 25953 ft 353 kts 291°
2026-04-22 14:48 25.34862 45.00222 25954 ft 356 kts 291°
2026-04-22 14:49 25.35920 44.97771 25950 ft 354 kts 291°
2026-04-22 14:49 25.36980 44.95308 25948 ft 356 kts 291°
2026-04-22 14:49 25.38037 44.92855 25950 ft 355 kts 291°
2026-04-22 14:49 25.39097 44.90392 25946 ft 354 kts 291°
2026-04-22 14:50 25.40159 44.87917 25948 ft 353 kts 291°
2026-04-22 14:50 25.41209 44.85474 25941 ft 355 kts 291°
2026-04-22 14:50 25.42273 44.82997 25947 ft 355 kts 291°
2026-04-22 14:50 25.43323 44.80551 25946 ft 354 kts 291°
2026-04-22 14:51 25.44377 44.78097 25945 ft 354 kts 291°
2026-04-22 14:51 25.45433 44.75631 25946 ft 354 kts 291°
2026-04-22 14:51 25.46483 44.73181 25942 ft 354 kts 291°
2026-04-22 14:51 25.47532 44.70731 25942 ft 354 kts 291°
2026-04-22 14:52 25.48592 44.68257 25941 ft 355 kts 291°
2026-04-22 14:52 25.49651 44.65780 25943 ft 355 kts 291°
2026-04-22 14:52 25.50699 44.63329 25942 ft 354 kts 290°
2026-04-22 14:52 25.51755 44.60856 25940 ft 355 kts 291°
2026-04-22 14:53 25.52856 44.58425 25938 ft 358 kts 296°
2026-04-22 14:53 25.54535 44.56335 25930 ft 372 kts 315°
2026-04-22 14:53 25.56816 44.54896 25955 ft 384 kts 327°
2026-04-22 14:53 25.59225 44.53586 25957 ft 381 kts 324°
2026-04-22 14:54 25.61552 44.52185 25939 ft 378 kts 323°
2026-04-22 14:54 25.63842 44.50770 25851 ft 382 kts 323°
2026-04-22 14:54 25.66163 44.49321 25532 ft 382 kts 323°
2026-04-22 14:54 25.68460 44.47881 25084 ft 382 kts 323°
2026-04-22 14:55 25.70779 44.46424 24599 ft 379 kts 323°
2026-04-22 14:55 25.73059 44.44989 24096 ft 376 kts 323°
2026-04-22 14:55 25.75339 44.43550 23552 ft 373 kts 323°
2026-04-22 14:55 25.77578 44.42142 23020 ft 371 kts 323°
2026-04-22 14:56 25.79825 44.40724 22485 ft 368 kts 323°
2026-04-22 14:56 25.82031 44.39331 21963 ft 366 kts 323°
2026-04-22 14:56 25.84227 44.37945 21436 ft 363 kts 323°
2026-04-22 14:56 25.86413 44.36565 20940 ft 360 kts 323°
2026-04-22 14:57 25.88605 44.35180 20432 ft 357 kts 323°
2026-04-22 14:57 25.90777 44.33807 19960 ft 354 kts 323°
2026-04-22 14:57 25.92894 44.32468 19490 ft 350 kts 323°
2026-04-22 14:57 25.95008 44.31131 19054 ft 347 kts 323°
2026-04-22 14:58 25.97114 44.29797 18583 ft 343 kts 323°
2026-04-22 14:58 25.99181 44.28490 18142 ft 340 kts 323°
2026-04-22 14:58 26.01208 44.27205 17703 ft 338 kts 323°
2026-04-22 14:58 26.03234 44.25920 17272 ft 335 kts 323°
2026-04-22 14:59 26.05270 44.24631 16840 ft 333 kts 323°
2026-04-22 14:59 26.07257 44.23367 16413 ft 331 kts 323°
2026-04-22 14:59 26.09265 44.22094 15969 ft 330 kts 323°
2026-04-22 14:59 26.11287 44.20809 15517 ft 328 kts 323°
2026-04-22 15:00 26.13256 44.19560 15082 ft 327 kts 323°
2026-04-22 15:00 26.15225 44.18308 14642 ft 325 kts 324°
2026-04-22 15:00 26.17198 44.17055 14181 ft 324 kts 324°
2026-04-22 15:00 26.19156 44.15810 13720 ft 322 kts 324°
2026-04-22 15:01 26.21082 44.14585 13271 ft 321 kts 324°
2026-04-22 15:01 26.23031 44.13345 12809 ft 320 kts 325°
2026-04-22 15:01 26.24945 44.12126 12358 ft 319 kts 325°
2026-04-22 15:01 26.26866 44.10903 11870 ft 313 kts 326°
2026-04-22 15:02 26.28752 44.09701 11437 ft 313 kts 326°
2026-04-22 15:02 26.30662 44.08485 11032 ft 314 kts 327°
2026-04-22 15:02 26.32552 44.07280 10641 ft 313 kts 327°
2026-04-22 15:02 26.34437 44.06079 10424 ft 313 kts 327°
2026-04-22 15:03 26.36324 44.04876 10394 ft 314 kts 327°
2026-04-22 15:03 26.38203 44.03679 10239 ft 312 kts 327°
2026-04-22 15:03 26.40064 44.02490 10143 ft 294 kts 328°
2026-04-22 15:03 26.41779 44.01396 10031 ft 276 kts 328°
2026-04-22 15:04 26.43448 44.00328 10017 ft 273 kts 328°
2026-04-22 15:04 26.45100 43.99273 9732 ft 274 kts 328°
2026-04-22 15:04 26.46730 43.98230 9584 ft 267 kts 328°
2026-04-22 15:04 26.48132 43.97019 9437 ft 250 kts 310°
2026-04-22 15:05 26.49268 43.95507 9227 ft 251 kts 307°
2026-04-22 15:05 26.50313 43.93959 8957 ft 246 kts 303°
2026-04-22 15:05 26.51230 43.92381 8698 ft 238 kts 299°
2026-04-22 15:05 26.52013 43.90816 8469 ft 228 kts 295°
2026-04-22 15:06 26.52673 43.89277 8346 ft 208 kts 292°
2026-04-22 15:06 26.53206 43.87820 8085 ft 197 kts 289°
2026-04-22 15:06 26.53642 43.86411 7851 ft 187 kts 286°
2026-04-22 15:06 26.53997 43.85030 7650 ft 182 kts 283°
2026-04-22 15:07 26.54285 43.83658 7472 ft 181 kts 281°
2026-04-22 15:07 26.54510 43.82276 7300 ft 182 kts 278°
2026-04-22 15:07 26.54675 43.80867 7122 ft 182 kts 275°
2026-04-22 15:07 26.54773 43.79479 6946 ft 181 kts 272°
2026-04-22 15:08 26.54810 43.78074 6768 ft 182 kts 270°
2026-04-22 15:08 26.54783 43.76667 6591 ft 182 kts 267°
2026-04-22 15:08 26.54693 43.75277 6419 ft 181 kts 264°
2026-04-22 15:08 26.54541 43.73883 6228 ft 181 kts 261°
2026-04-22 15:09 26.54323 43.72485 6044 ft 180 kts 258°
2026-04-22 15:09 26.54047 43.71120 5903 ft 179 kts 255°
2026-04-22 15:09 26.53707 43.69770 5857 ft 181 kts 252°
2026-04-22 15:09 26.53292 43.68454 5801 ft 181 kts 250°
2026-04-22 15:10 26.52657 43.67268 5728 ft 178 kts 216°
2026-04-22 15:10 26.51529 43.66799 5744 ft 172 kts 183°
2026-04-22 15:10 26.50389 43.66644 5745 ft 161 kts 182°
2026-04-22 15:10 26.49320 43.66607 5607 ft 150 kts 160°
2026-04-22 15:11 26.48410 43.67066 5573 ft 143 kts 144°
2026-04-22 15:11 26.47537 43.67625 5422 ft 145 kts 148°
2026-04-22 15:11 26.46637 43.68129 5261 ft 144 kts 149°
2026-04-22 15:11 26.45739 43.68638 5091 ft 143 kts 148°
2026-04-22 15:12 26.44847 43.69145 4916 ft 143 kts 148°
2026-04-22 15:12 26.43955 43.69651 4738 ft 143 kts 148°
2026-04-22 15:12 26.43077 43.70151 4561 ft 142 kts 147°
2026-04-22 15:12 26.42189 43.70657 4381 ft 142 kts 148°
2026-04-22 15:13 26.41302 43.71159 4196 ft 142 kts 148°
2026-04-22 15:13 26.40417 43.71664 4012 ft 142 kts 147°
2026-04-22 15:13 26.39541 43.72165 3832 ft 143 kts 147°
2026-04-22 15:13 26.38648 43.72673 3645 ft 142 kts 147°
2026-04-22 15:14 26.37768 43.73172 3464 ft 142 kts 147°
2026-04-22 15:14 26.36889 43.73671 3279 ft 142 kts 147°
2026-04-22 15:14 26.36000 43.74175 3095 ft 143 kts 147°
2026-04-22 15:14 26.35115 43.74677 2933 ft 143 kts 147°
2026-04-22 15:15 26.34219 43.75178 2767 ft 142 kts 148°
2026-04-22 15:15 26.33342 43.75686 2572 ft 143 kts 148°
2026-04-22 15:15 26.32433 43.76174 2415 ft 143 kts 148°
2026-04-22 15:15 26.31547 43.76680 2216 ft 143 kts 149°
2026-04-22 15:16 26.30667 43.77188 2139 ft 127 kts 147°
2026-04-22 15:16 26.30055 43.77539 2132 ft 70 kts 153°
2026-04-22 15:16 26.29770 43.77701 2133 ft 21 kts 162°
2026-04-22 15:16 26.29657 43.77720 2134 ft 15 kts 178°
2026-04-22 15:17 26.29558 43.77722 2135 ft 12 kts 182°
2026-04-22 15:17 26.29475 43.77714 2137 ft 10 kts 197°
2026-04-22 15:17 26.29444 43.77645 2139 ft 13 kts 302°
2026-04-22 15:17 26.29542 43.77583 2138 ft 17 kts 335°
2026-04-22 15:18 26.29657 43.77519 2137 ft 19 kts 329°
2026-04-22 15:18 26.29785 43.77449 2136 ft 21 kts 334°
2026-04-22 15:18 26.29923 43.77369 2136 ft 23 kts 332°
2026-04-22 15:18 26.30066 43.77285 2136 ft 21 kts 332°
2026-04-22 15:19 26.30198 43.77211 2138 ft 14 kts 331°
2026-04-22 15:19 26.30232 43.77191 2138 ft 5 kts 332°
2026-04-22 15:19 26.30267 43.77171 2139 ft 5 kts 333°
2026-04-22 15:19 26.30307 43.77147 2140 ft 4 kts 328°
2026-04-22 15:20 26.30338 43.77115 2140 ft 7 kts 301°
2026-04-22 15:20 26.30333 43.77074 2141 ft 0 kts 238°
2026-04-22 15:20 26.30325 43.77060 2141 ft 3 kts 238°
2026-04-22 15:20 26.30318 43.77049 2142 ft 2 kts 238°
2026-04-22 15:21 26.30318 43.77048 2142 ft 0 kts 238°